Wind_Speed
13 14 15 15 15 16 18 19 20 19 19 19 20 21 19 18 17 16 15 15 14 14 13 13 13 12 12 12 12 12 11 12 11 11 11 11 11 12 11 11 12 14 14 15 16 18 20 22 22 22 22 23 25 25 26 27 27 28 27 25 24 21 21 21 21 24 26 28 30 33 33 34 36 37 38 39 38 37 36 35 34 32 28 26 26
17 17 18 17 17 18 19 20 20 20 20 21 21 20 19 18 17 16 16 15 14 14 14 13 12 11 11 11 10 10 11 11 11 11 10 11 11 11 11 10 11 13 15 16 16 17 19 21 23 22 22 23 25 26 27 28 28 28 28 26 25 23 23 23 23 24 27 30 32 33 33 33 34 36 37 38 38 37 38 36 34 34 33 30 28
20 20 20 19 19 20 20 20 21 21 21 22 21 20 19 18 17 16 16 15 14 13 13 12 12 11 11 10 9 9 9 9 10 10 10 10 10 10 9 10 12 15 16 16 15 15 17 19 22 22 22 24 26 26 27 28 28 28 28 27 25 25 25 25 25 25 28 32 33 34 35 34 33 34 35 36 37 38 39 38 37 36 37 37 34
23 22 22 22 21 21 20 20 22 22 22 21 20 20 19 18 17 16 15 15 14 13 12 11 11 11 11 11 10 9 7 7 7 8 10 10 10 10 10 12 14 17 18 17 14 13 15 18 21 22 23 24 25 27 28 28 29 28 28 27 26 25 26 27 27 27 29 33 34 34 34 33 33 33 35 36 38 39 38 38 39 40 41 42 41
23 23 25 24 22 21 22 22 23 23 22 22 21 20 19 19 18 16 15 14 14 14 13 11 10 10 10 10 10 9 8 7 6 7 9 10 12 13 14 15 15 16 17 18 16 14 16 18 20 22 24 25 26 28 28 28 29 28 27 26 25 25 26 28 29 29 30 32 35 35 34 33 34 34 36 38 40 39 38 38 40 42 43 45 45
23 25 26 24 23 23 24 25 25 24 23 22 21 20 20 19 18 16 14 13 13 13 12 11 11 10 10 10 10 10 9 8 7 8 9 11 13 14 14 15 13 12 15 18 18 19 19 19 20 23 24 25 26 28 28 28 28 28 26 24 24 24 26 28 29 30 31 33 36 37 36 36 36 36 37 39 40 40 40 41 42 42 44 45 47
25 27 26 24 24 25 25 25 25 24 23 22 21 20 19 18 17 15 13 12 13 13 12 11 11 10 11 10 10 10 9 9 8 9 9 11 14 15 14 13 11 10 13 16 18 21 23 22 21 23 25 25 27 28 28 29 28 28 26 23 22 23 24 27 29 30 32 35 36 38 38 38 38 38 39 40 40 42 43 44 46 45 44 46 48
27 27 26 26 26 26 26 26 25 24 23 22 22 21 19 18 16 15 15 14 13 12 12 11 11 11 11 10 10 10 10 10 9 9 9 11 13 14 14 12 11 10 11 14 17 20 23 23 22 22 25 27 27 28 29 29 29 29 28 23 21 21 23 25 28 30 33 36 38 39 40 40 40 40 41 42 44 47 48 47 47 47 46 47 48
28 28 27 27 28 27 26 26 25 24 24 23 22 21 20 19 17 15 15 15 14 13 12 11 11 11 11 11 10 10 10 10 10 10 10 11 13 13 13 12 10 9 10 13 16 18 21 23 22 22 25 27 27 28 28 27 28 29 29 24 20 20 22 24 27 31 34 37 39 40 41 42 42 42 43 44 46 48 50 50 49 48 48 49 49
28 28 28 28 28 27 27 26 25 24 24 22 21 20 20 19 18 16 15 15 15 14 13 12 11 11 11 11 11 11 11 11 11 10 10 11 12 12 12 12 11 10 9 11 14 15 19 23 23 23 26 27 27 27 27 26 27 27 27 24 19 19 23 26 28 30 34 37 40 41 42 43 43 43 43 45 47 50 51 52 53 51 49 50 51
28 28 29 29 28 28 27 26 25 24 23 22 21 21 20 19 18 16 14 15 15 14 13 13 12 11 11 11 11 11 12 12 11 10 10 11 12 12 12 12 12 11 9 9 11 14 17 21 23 24 26 27 27 27 26 26 26 25 25 23 20 20 24 27 29 32 34 38 40 41 42 43 43 43 44 46 49 52 53 52 51 51 49 49 50
29 29 29 29 28 28 26 26 25 24 23 22 21 20 19 18 17 15 15 15 15 14 13 13 12 12 11 11 11 12 12 12 11 10 10 11 12 12 12 11 11 11 10 7 10 13 16 20 23 24 26 27 28 27 25 25 25 24 23 23 21 21 24 26 30 33 36 38 40 40 40 41 42 42 44 48 51 54 54 53 50 49 49 47 47
29 29 28 28 28 27 26 25 25 24 23 22 21 19 19 18 17 16 16 16 15 14 13 12 12 12 11 11 12 12 12 12 11 10 10 11 11 11 12 11 8 9 9 7 9 12 15 20 23 24 26 28 28 27 25 24 24 24 24 23 22 23 25 26 29 32 34 36 37 38 37 38 40 42 45 48 51 54 55 54 52 51 50 47 47
29 28 28 28 28 27 26 25 25 24 23 22 21 20 19 18 17 16 16 16 15 14 13 13 13 12 11 11 12 12 13 12 11 10 9 9 9 8 9 9 5 5 7 7 9 12 15 19 21 23 26 28 27 24 23 23 24 25 26 26 26 26 27 29 31 32 34 35 35 35 36 36 39 43 46 48 50 53 54 55 55 52 50 48 47
28 28 28 28 27 27 26 26 25 24 23 22 21 20 19 18 17 16 16 15 14 14 14 13 13 12 12 12 11 12 13 12 11 10 8 7 6 5 6 7 4 4 6 6 9 11 15 18 19 22 25 25 22 21 22 24 25 26 28 28 28 28 29 30 32 33 34 34 33 33 34 36 39 43 46 47 49 50 51 51 51 49 49 48 48
28 28 29 28 28 27 27 27 25 24 23 22 21 20 19 19 19 18 17 15 14 14 14 13 12 12 12 11 11 11 12 12 11 11 9 8 6 4 5 5 3 4 5 7 9 11 14 16 17 20 22 21 20 21 22 24 26 28 30 30 30 29 30 31 31 33 34 34 33 33 33 36 39 43 46 48 49 50 50 49 48 47 47 48 48
29 30 29 28 28 28 28 27 26 25 23 22 21 21 21 20 19 18 17 16 15 13 13 13 13 12 11 11 11 11 11 11 11 10 10 10 9 7 6 6 4 4 4 5 8 9 11 14 16 17 18 20 22 23 23 24 27 28 30 31 31 31 31 32 33 34 34 34 33 33 33 35 40 43 46 48 49 51 51 49 47 47 47 48 47
31 30 29 29 29 28 27 26 25 24 23 23 23 22 21 20 19 18 17 16 15 13 12 13 13 12 10 10 10 10 10 11 10 10 10 9 9 8 7 7 6 5 4 3 5 7 9 12 14 16 18 22 24 24 25 26 27 28 30 31 32 33 33 35 36 37 37 35 33 32 33 37 41 44 47 49 50 51 50 48 47 47 48 48 46
31 30 30 29 28 27 27 26 25 24 24 23 23 22 21 20 19 18 17 16 15 14 13 13 13 12 11 11 11 10 10 10 10 10 11 10 9 8 8 8 8 8 6 5 6 7 8 10 13 16 19 22 23 24 26 27 27 28 29 31 33 35 35 35 37 38 38 37 35 34 36 40 43 45 48 51 52 52 50 47 46 48 48 46 43
31 30 30 29 27 27 27 26 25 24 24 23 23 21 21 20 19 19 18 16 16 15 14 13 12 12 12 12 11 11 11 11 10 11 11 10 9 8 8 8 9 9 8 7 7 8 9 12 14 17 20 22 23 25 25 26 27 28 29 31 33 34 33 34 36 37 37 36 35 36 39 42 45 47 51 53 54 54 51 48 47 48 47 45 41
31 31 30 28 27 27 27 25 24 24 24 24 23 22 21 20 19 17 16 15 15 15 14 13 12 12 11 11 11 11 11 11 10 11 11 10 9 9 8 8 9 9 8 8 9 9 11 13 15 17 20 21 23 25 25 25 26 27 28 30 30 30 32 34 36 37 36 34 35 37 40 43 46 49 52 55 55 55 53 50 48 48 46 43 39
32 31 30 28 28 27 27 25 24 24 25 24 24 23 21 19 17 16 14 12 12 13 12 11 10 10 10 10 10 10 10 10 10 10 10 9 9 9 9 9 9 10 9 9 10 11 13 15 16 18 20 21 23 25 25 25 26 28 28 29 28 29 32 34 37 37 35 34 35 38 40 43 46 49 52 55 56 56 54 51 49 48 46 40 35
32 31 30 29 29 28 27 26 25 25 25 24 24 24 22 19 17 16 13 12 12 12 10 9 9 8 7 7 8 8 8 9 9 9 9 9 9 9 9 9 10 11 11 11 11 12 13 15 17 18 19 20 23 25 24 24 26 28 29 29 29 30 33 35 36 36 34 34 36 39 41 43 46 48 51 54 56 56 55 52 51 50 48 43 37
32 32 31 30 30 29 28 26 25 25 25 24 25 25 23 20 18 16 14 12 12 11 9 8 7 5 4 4 4 5 6 8 8 8 8 8 9 9 9 9 10 11 11 11 11 12 14 15 17 18 18 20 24 25 24 24 26 27 28 28 29 31 34 35 35 35 34 34 37 39 41 43 45 47 50 53 55 55 54 53 52 51 49 47 43
34 33 32 32 31 30 28 26 25 25 25 25 25 25 22 21 19 18 15 13 11 10 8 7 6 4 2 1 2 5 5 6 7 7 8 7 8 9 9 9 10 10 10 10 12 13 15 15 16 17 19 21 24 25 24 23 24 26 27 27 28 31 34 35 35 34 34 34 36 38 40 42 44 46 49 51 53 54 54 54 54 53 53 51 48
35 35 34 33 32 30 29 27 26 25 24 24 24 23 22 22 21 18 15 12 9 7 6 6 6 5 4 4 4 6 5 5 6 7 7 6 6 7 8 9 9 9 9 10 12 13 15 16 17 18 20 21 23 25 25 24 24 25 26 27 28 31 33 34 35 34 33 33 35 37 39 41 43 45 48 51 52 53 54 54 55 55 55 55 53
37 36 35 34 32 30 29 28 27 26 25 24 23 22 22 21 19 16 14 11 9 7 6 7 8 7 6 6 6 6 6 5 6 6 5 4 5 6 6 7 7 8 9 10 12 13 15 16 17 19 20 21 22 23 24 24 25 26 26 26 28 30 32 33 33 32 31 32 33 34 36 39 42 45 48 50 51 52 52 53 54 55 55 55 55
38 37 35 34 32 30 29 29 28 26 25 24 23 22 21 20 17 15 13 12 12 11 10 10 10 9 8 8 9 8 7 6 6 5 4 3 3 4 5 6 6 8 10 11 12 13 14 15 17 18 19 21 22 23 23 25 26 26 25 25 27 28 30 32 33 31 30 30 31 32 35 38 41 45 47 48 49 51 52 52 52 53 54 54 54
38 37 35 33 32 30 30 29 27 26 25 24 23 21 18 16 15 15 15 15 14 14 14 14 13 12 10 10 10 10 7 6 6 5 3 2 3 3 3 4 5 8 11 12 13 13 14 15 17 18 20 22 23 23 24 25 26 26 25 25 26 28 29 32 34 33 30 30 31 32 33 37 40 43 45 47 47 49 51 52 52 53 54 55 54
38 36 34 33 32 31 30 29 27 26 26 26 24 22 18 15 15 14 14 15 15 15 15 16 15 15 13 11 10 10 9 8 7 5 4 3 3 3 3 4 5 7 10 12 13 14 14 15 16 18 20 21 22 23 23 24 25 26 26 25 26 27 29 31 33 33 30 29 30 30 31 34 38 41 43 45 45 46 49 51 52 53 54 55 55
38 36 34 33 32 32 30 29 28 27 27 26 24 23 21 20 18 16 14 14 15 16 16 16 15 14 13 12 11 10 10 9 8 6 4 4 4 4 4 4 5 6 8 10 12 13 14 15 15 16 18 20 22 22 22 22 24 25 26 26 27 27 28 30 31 32 31 29 29 29 30 32 35 38 41 43 44 45 47 49 51 52 53 54 55
38 36 34 33 32 31 30 29 29 28 26 24 23 23 23 23 21 19 17 17 17 18 18 17 15 13 11 11 10 9 9 8 7 6 5 4 5 5 5 5 4 5 7 9 10 12 13 14 14 15 17 20 21 22 21 21 22 24 24 26 27 27 28 28 29 30 31 30 29 29 29 30 32 35 38 40 42 43 45 47 49 50 51 52 54
37 36 35 34 32 31 31 30 30 29 27 25 24 23 23 23 21 18 17 17 19 20 19 17 15 13 10 9 9 9 8 8 7 6 5 5 5 6 6 5 4 4 5 6 8 10 13 14 13 14 16 19 20 21 21 20 21 22 23 24 25 27 27 27 27 28 30 30 30 29 29 28 29 32 35 38 40 41 42 44 46 47 48 49 51
37 36 35 33 32 31 31 30 30 29 27 24 23 21 21 20 19 17 15 15 16 17 17 15 13 11 10 8 8 8 8 7 7 6 6 6 6 6 6 5 4 4 3 4 6 8 12 14 13 13 15 18 19 19 20 20 20 21 21 22 24 25 26 27 28 28 29 29 29 30 29 28 27 29 32 35 37 39 39 40 42 45 47 47 47
36 34 33 32 30 30 30 30 29 28 26 23 21 19 17 15 15 15 14 12 11 11 11 11 10 9 8 7 7 7 7 7 7 6 6 7 7 7 6 5 4 4 3 3 4 6 10 14 14 13 15 17 19 19 19 19 19 19 20 22 23 24 26 27 28 28 28 28 29 29 30 29 27 26 28 31 34 36 38 38 38 40 43 45 45
34 32 31 30 28 28 29 28 25 24 25 24 21 17 14 13 14 13 11 9 9 8 8 8 7 7 7 8 7 6 6 6 7 6 7 8 9 8 7 6 5 4 3 4 5 5 8 13 15 14 15 17 19 19 19 19 18 18 19 20 22 24 25 26 27 28 28 28 28 28 29 29 28 25 25 27 30 33 35 36 36 36 37 41 43
31 29 29 28 26 27 30 29 24 22 22 21 18 16 13 12 12 11 10 10 10 9 9 8 8 9 10 10 8 7 6 7 8 8 8 9 9 8 7 6 7 6 5 5 6 7 8 11 15 15 15 18 19 19 19 19 18 18 18 19 20 22 24 25 26 27 27 28 28 27 28 28 28 26 24 24 27 29 31 34 35 35 34 36 39
29 28 27 26 26 27 29 28 25 23 22 19 17 16 15 14 13 12 12 12 11 10 10 10 10 11 11 10 8 8 8 9 11 10 10 10 9 8 8 8 9 9 8 8 8 9 9 11 15 16 16 18 20 20 19 19 18 18 19 19 19 20 22 24 25 26 26 27 27 27 27 27 27 26 24 23 24 26 28 31 33 34 35 34 34
28 27 26 25 25 27 27 25 22 21 21 21 20 18 18 18 17 16 15 14 13 12 12 12 12 13 12 10 10 10 11 13 13 12 11 10 11 10 10 10 11 12 11 11 11 11 12 13 15 16 17 19 21 21 20 19 19 19 20 20 20 20 20 22 24 25 26 26 26 26 26 26 26 26 24 22 22 23 25 27 30 32 34 34 33
29 28 27 25 25 27 27 25 22 20 20 21 21 20 20 20 19 18 17 17 16 14 14 14 15 15 14 14 13 13 14 15 15 14 13 13 14 14 14 14 15 14 14 14 13 13 14 15 15 16 18 20 22 21 21 20 20 19 19 20 21 21 20 20 22 24 25 25 25 25 26 26 25 25 24 23 22 21 21 23 25 27 30 32 33
30 30 27 23 24 28 28 25 24 22 20 20 21 21 20 20 19 19 19 18 18 17 17 17 18 17 16 14 13 14 15 16 16 16 16 17 18 18 18 19 19 18 16 15 15 15 15 16 17 18 19 20 21 21 21 20 19 18 18 19 20 21 21 20 20 21 23 25 25 25 25 25 25 25 24 23 22 21 20 19 21 23 25 28 30
30 29 26 22 24 27 28 25 23 23 22 21 22 22 22 21 20 20 20 20 19 19 19 20 20 19 17 15 15 16 17 18 18 18 19 19 20 20 20 20 21 19 17 16 16 16 16 16 17 17 18 20 21 21 20 18 17 17 18 19 19 21 21 21 19 19 21 23 24 24 24 24 24 24 23 22 22 21 20 19 18 19 22 24 27
30 27 23 21 22 25 27 25 23 22 22 23 22 22 22 23 23 21 21 22 21 20 20 20 20 20 19 18 18 18 19 19 19 19 20 20 20 20 20 22 23 20 17 17 17 17 17 16 16 17 20 21 21 19 17 16 16 17 18 19 19 19 20 21 20 19 20 22 23 23 23 23 24 23 23 22 22 21 20 19 18 17 18 20 23
30 25 22 20 20 22 25 26 24 22 20 20 21 21 20 21 23 24 23 23 23 23 23 23 22 21 21 21 20 21 21 21 21 21 21 21 21 21 22 23 21 18 16 16 17 17 18 18 19 21 22 22 20 17 14 14 15 16 18 20 20 20 20 20 20 20 20 21 22 22 23 23 23 23 23 22 22 21 20 19 18 17 16 16 19
29 26 23 22 21 22 23 25 25 24 21 19 20 21 20 19 21 24 25 25 24 24 24 23 22 21 21 21 22 22 23 22 22 22 23 23 23 23 22 20 18 15 14 13 14 16 18 20 21 22 22 21 18 15 13 12 14 16 18 20 21 22 22 21 20 20 19 20 20 21 22 22 22 23 23 22 21 21 20 19 18 17 15 14 15
27 25 24 24 23 22 23 23 25 26 26 23 21 21 21 21 22 22 24 25 25 24 24 22 21 21 21 21 22 22 22 22 22 22 22 22 23 22 21 19 17 15 14 14 14 16 18 20 21 21 22 21 19 16 14 15 17 19 20 21 22 22 23 23 22 20 20 19 19 20 21 21 21 22 22 21 21 20 19 18 18 18 16 13 12
28 26 25 25 24 24 24 24 24 25 27 28 26 24 23 24 24 24 24 24 25 26 26 25 23 23 23 23 23 24 23 23 23 23 22 22 21 21 21 20 19 18 17 17 16 16 18 20 21 22 22 22 21 19 18 19 20 21 22 22 22 22 22 22 22 21 21 20 20 19 19 20 20 21 21 20 20 20 19 18 18 18 17 14 12
28 26 26 26 26 26 26 26 24 23 24 27 29 29 28 27 26 27 27 26 26 26 26 26 26 26 25 25 25 25 25 25 25 24 24 23 23 22 22 22 21 20 19 19 19 19 20 21 22 23 23 23 23 23 22 22 23 24 24 24 24 23 22 21 21 21 22 21 21 20 19 19 19 20 20 20 19 19 19 19 18 17 16 15 13
28 27 26 27 28 28 27 26 25 23 21 22 26 29 30 30 29 28 28 28 27 27 26 26 25 25 25 25 24 24 24 25 26 25 25 25 24 24 23 22 22 22 21 21 21 21 22 22 23 24 24 24 24 23 23 23 24 25 25 25 25 24 22 21 21 22 22 22 21 21 20 19 19 19 18 19 19 18 18 18 18 17 16 15 13
29 28 27 26 27 27 25 24 24 23 21 20 21 24 27 29 29 29 28 27 27 27 26 26 25 25 24 24 24 24 24 24 24 24 24 23 23 22 22 22 23 23 24 24 24 24 24 25 24 24 23 23 23 24 25 25 25 25 25 25 25 24 23 23 24 23 23 23 23 22 21 20 20 19 19 18 18 18 17 17 17 17 16 15 13
30 29 27 25 26 26 25 23 23 23 23 22 21 22 23 25 26 27 27 27 27 27 27 26 26 26 26 25 25 25 25 25 24 24 24 23 23 22 22 22 23 23 24 25 24 24 24 23 22 22 23 24 25 25 26 25 26 27 26 26 25 24 24 25 26 25 24 24 23 23 23 22 21 21 20 19 18 18 17 17 16 16 16 16 14
Wind_Direction
163 154 148 149 147 142 140 139 140 147 152 156 157 155 154 155 154 153 150 149 150 151 149 148 147 145 143 140 138 132 126 119 111 106 100 92 86 81 75 67 58 55 55 50 46 48 49 45 40 37 33 30 29 27 24 21 17 16 14 12 13 10 2 357 345 337 341 344 342 344 346 344 344 344 342 340 341 340 338 336 334 332 327 318 310
145 143 144 147 145 143 145 148 151 154 154 156 157 156 156 155 155 155 151 151 154 153 150 146 143 141 137 134 132 130 126 119 112 106 100 90 83 79 75 65 55 53 56 55 47 42 42 38 32 31 30 28 27 24 20 18 14 13 13 11 11 12 9 4 355 342 339 344 346 345 345 343 343 343 342 340 339 337 334 334 334 332 328 323 314
147 151 153 153 149 148 152 154 155 155 156 158 158 157 157 155 154 154 152 153 155 152 147 144 141 137 133 129 124 121 119 115 112 107 99 89 80 76 71 64 60 59 59 59 53 38 34 31 25 26 28 26 24 22 17 15 13 11 11 10 9 12 14 9 359 349 343 344 346 346 345 344 343 342 343 342 340 338 335 334 333 331 328 326 319
159 162 160 158 156 157 160 159 159 158 157 157 157 157 156 154 152 151 153 155 154 148 145 143 139 136 132 127 121 116 110 102 101 101 99 92 81 73 71 69 65 60 56 59 56 37 28 27 22 22 26 24 21 19 15 12 11 10 8 8 9 10 12 9 3 356 348 344 345 345 344 342 341 343 345 344 341 339 336 333 331 329 328 327 324
165 162 160 161 162 164 163 161 160 157 156 156 157 157 155 153 153 153 158 160 154 148 146 142 140 136 130 125 121 117 110 97 84 84 91 93 84 73 70 70 65 55 52 54 51 38 28 24 22 22 24 22 19 17 13 9 9 9 6 5 7 9 8 6 3 358 351 346 345 346 345 343 342 344 346 343 341 340 337 332 330 327 325 325 325
163 159 160 163 164 164 161 159 160 158 159 159 159 158 158 158 158 160 164 159 148 146 146 142 139 134 125 120 117 114 109 101 90 85 86 89 88 81 71 70 68 57 53 51 46 38 31 23 20 22 22 21 18 14 10 7 7 7 3 1 4 6 4 2 360 356 350 346 345 346 346 345 344 343 344 343 341 341 338 334 331 328 325 323 323
163 161 165 167 165 164 161 162 163 162 162 161 160 160 159 160 161 162 160 152 145 146 146 141 135 128 120 115 112 109 105 102 98 93 88 86 88 87 79 74 70 57 47 44 41 37 31 23 19 20 22 21 16 11 7 4 5 6 2 358 359 2 1 359 357 352 347 344 344 344 344 345 344 342 341 342 341 341 340 336 333 330 325 321 320
165 166 169 168 167 166 164 164 164 163 163 162 161 160 159 158 159 160 158 153 150 147 144 139 131 123 118 112 108 105 101 101 99 97 95 90 88 88 84 77 68 54 37 32 34 32 26 21 19 19 21 20 14 9 5 1 1 3 360 354 351 357 358 356 354 351 346 344 343 342 341 341 342 341 339 340 340 340 340 336 333 330 326 321 319
169 171 171 169 168 166 165 165 165 165 165 165 164 163 162 160 160 162 160 155 151 147 141 135 128 121 117 110 106 103 98 97 96 95 97 95 91 89 84 77 71 58 32 21 23 23 17 14 15 18 19 17 12 8 4 1 0 1 359 352 347 351 356 356 354 350 346 344 342 340 339 339 340 339 337 337 337 336 336 334 331 328 326 321 318
174 173 171 169 168 166 166 167 167 167 168 168 167 166 165 164 163 165 163 153 147 144 138 134 127 121 117 111 106 101 95 92 92 94 98 97 95 90 80 75 76 67 42 20 14 15 10 5 11 17 15 11 9 6 3 2 2 3 3 0 354 352 354 355 354 351 346 343 341 340 337 336 338 336 333 333 334 333 333 332 329 327 325 321 317
174 172 170 169 168 167 168 169 169 169 169 168 168 167 168 167 166 168 162 148 142 140 137 133 126 120 115 109 103 96 89 87 88 92 99 99 98 93 81 71 65 57 46 21 8 8 3 1 9 14 9 5 4 2 2 2 2 4 8 12 10 3 359 357 355 353 348 343 341 340 337 335 335 334 331 332 333 332 331 328 325 324 322 318 314
173 172 171 170 169 169 171 171 169 169 168 169 170 171 170 168 168 167 159 146 143 141 136 131 123 115 110 103 97 90 85 85 87 93 101 99 94 86 77 69 53 37 32 21 9 5 359 0 8 10 4 360 359 359 0 1 360 1 7 13 16 13 8 2 357 354 350 344 342 342 340 337 334 333 332 333 332 330 328 326 323 321 317 313 310
175 175 173 171 171 172 173 172 169 169 170 172 173 172 170 167 166 165 158 149 146 141 134 127 119 111 106 99 94 89 86 84 86 92 100 99 94 83 72 70 53 25 20 17 14 6 354 357 5 5 359 356 355 356 357 358 359 2 7 12 13 13 10 7 3 359 354 348 344 342 341 338 334 333 334 334 330 328 327 325 323 320 316 313 311
179 177 174 172 173 174 174 172 170 171 172 173 174 172 170 167 165 163 159 154 149 142 134 126 118 111 104 97 93 90 87 83 82 86 91 96 101 100 91 92 84 41 30 22 14 4 350 353 1 1 356 353 355 359 360 360 2 6 10 12 11 10 9 6 4 1 356 350 344 341 340 338 335 335 337 335 331 328 326 324 323 321 318 316 315
179 176 173 174 175 175 173 172 172 172 173 175 175 172 168 165 163 161 159 155 149 142 135 128 120 112 104 98 94 91 86 82 79 77 75 79 90 99 103 113 117 74 58 43 26 6 350 354 1 358 354 355 0 6 6 5 7 7 7 7 6 6 5 2 1 358 353 349 346 342 340 339 340 341 340 338 334 330 329 327 326 324 321 320 318
177 174 173 174 175 175 174 174 174 174 176 176 172 168 166 164 162 161 158 154 150 144 137 131 122 114 107 101 96 90 87 84 80 74 68 64 62 56 71 93 93 60 58 53 40 16 353 355 0 357 357 4 11 13 8 5 7 5 2 1 0 0 1 1 358 354 351 349 347 345 344 344 346 345 344 342 339 336 334 332 332 330 325 322 321
174 174 174 174 176 176 177 178 177 177 177 174 169 166 166 165 163 160 157 152 149 144 137 129 121 114 109 103 96 91 89 86 80 74 68 62 58 53 58 71 70 55 55 50 44 27 359 354 360 2 9 18 19 15 10 6 5 2 359 358 357 358 360 359 356 352 351 350 349 349 351 351 350 348 347 347 346 344 339 334 334 335 331 327 323
175 175 175 176 178 179 180 180 179 178 177 172 170 170 169 166 162 158 155 149 144 139 132 124 117 113 108 101 94 89 86 84 80 74 68 61 56 51 52 62 64 57 50 28 27 27 8 1 8 14 20 23 20 16 12 7 3 2 359 358 358 358 358 356 353 351 351 352 352 355 358 357 353 350 350 351 352 351 343 336 336 338 334 331 326
177 177 176 178 180 180 180 181 181 179 176 174 173 172 168 163 158 154 151 147 140 135 131 126 121 117 111 100 93 87 81 78 74 70 64 56 51 48 46 53 57 53 48 30 20 26 25 24 26 26 25 23 19 15 12 7 5 4 2 0 359 357 355 353 352 352 352 353 355 358 1 359 356 353 353 354 355 354 348 341 341 340 337 334 331
178 177 178 179 180 180 180 182 183 181 177 175 173 170 165 161 157 153 151 146 141 137 133 129 123 118 110 98 87 80 72 67 63 60 57 50 44 43 42 48 53 49 43 36 30 34 40 40 36 30 26 23 17 13 10 8 7 7 4 2 358 355 353 354 354 353 353 354 358 1 3 1 359 356 355 356 356 354 351 348 347 345 343 339 336
177 177 179 179 179 179 181 183 184 180 176 174 172 167 163 159 154 152 151 146 141 138 135 131 123 113 104 90 78 70 63 58 55 54 51 44 39 37 38 46 52 48 40 36 34 36 39 39 34 29 26 20 14 10 9 10 11 10 6 3 359 356 356 356 355 355 357 359 2 5 6 4 0 357 357 357 356 354 354 353 353 353 352 348 344
177 178 179 179 179 180 182 184 183 178 175 175 171 164 158 153 150 152 154 151 145 138 133 125 114 104 93 77 65 59 55 51 48 48 46 40 37 35 33 38 45 43 37 35 37 38 38 36 32 27 22 16 11 8 9 12 13 12 8 4 1 1 1 358 356 358 1 3 5 8 8 5 0 357 356 357 357 356 356 357 358 360 1 0 359
179 179 179 179 179 181 182 183 182 178 176 176 172 162 155 154 158 163 165 164 156 144 130 111 96 90 81 65 46 35 39 44 43 41 40 36 35 35 32 33 37 35 31 32 37 40 40 36 31 25 19 15 10 8 9 12 13 11 8 5 4 5 4 0 359 1 4 6 8 10 9 5 1 358 357 358 359 359 358 359 1 3 5 9 14
179 179 179 179 179 180 182 183 182 179 178 177 171 165 163 165 168 170 169 163 151 137 127 115 102 94 87 67 31 360 13 34 38 33 32 33 35 34 32 33 36 34 31 35 42 44 41 36 30 24 19 15 10 7 8 12 13 11 8 6 6 8 6 2 3 4 6 8 9 10 9 7 4 1 360 1 1 1 1 2 4 7 9 12 17
180 179 179 180 181 182 183 184 182 181 180 178 175 173 171 167 163 160 155 145 131 122 123 126 122 126 154 188 301 310 337 17 29 23 23 30 34 33 33 34 37 39 41 45 51 49 42 36 30 25 20 16 10 6 7 11 13 12 9 7 9 10 6 4 6 8 8 9 11 11 11 10 9 7 6 5 4 3 4 5 7 11 14 16 20
180 179 180 182 184 185 185 183 181 181 180 179 179 177 170 162 157 154 147 135 128 129 133 143 153 169 199 230 264 286 310 350 7 6 11 23 31 31 34 38 41 46 50 53 54 52 43 36 30 24 20 16 9 5 7 11 13 12 11 10 11 11 8 6 9 10 9 10 12 12 12 13 13 13 12 10 7 6 7 8 9 12 16 17 18
181 182 183 185 186 187 186 182 180 180 180 179 179 175 168 161 157 155 151 145 148 158 162 170 184 196 207 223 248 271 291 315 335 343 352 12 23 29 36 42 48 55 56 52 50 47 42 36 29 22 18 14 7 4 8 13 14 14 13 12 13 13 10 9 12 13 11 11 13 14 15 16 17 16 14 12 11 10 11 12 12 12 15 17 17
184 185 186 188 188 189 186 182 180 180 178 177 176 172 167 162 157 156 160 162 168 179 187 193 202 210 211 218 235 252 269 287 303 315 330 352 9 20 31 36 43 54 54 49 46 42 38 33 28 21 16 10 4 5 11 14 14 15 15 14 15 15 12 11 13 14 14 14 15 16 18 19 18 17 16 15 14 14 15 16 16 15 17 19 19
187 187 188 189 189 188 184 181 180 179 175 173 172 168 165 167 168 168 172 175 178 188 196 200 206 209 206 211 226 238 253 274 289 293 298 323 343 355 11 19 28 43 46 42 37 35 33 30 25 20 13 5 1 4 9 12 13 16 17 15 15 15 14 12 13 14 15 17 18 19 20 20 19 18 17 16 16 16 18 19 19 18 20 21 21
188 188 189 190 189 186 182 181 180 178 175 174 172 168 169 180 186 183 183 187 191 198 204 207 212 217 220 225 238 248 256 266 275 278 281 296 315 324 337 350 5 27 39 36 27 23 24 24 22 17 8 0 358 1 5 8 11 15 17 18 17 16 15 14 13 13 14 16 19 22 23 21 19 19 19 17 16 17 19 20 21 22 22 23 23
188 188 189 190 188 184 182 181 179 177 177 177 177 175 176 182 186 188 194 201 204 207 212 217 224 230 234 239 249 257 256 257 263 268 275 290 300 306 319 332 346 5 24 29 22 15 13 15 17 13 2 354 355 358 2 5 9 11 15 19 19 17 15 14 13 12 13 15 18 22 25 24 21 20 20 19 18 18 19 21 23 24 24 25 25
189 188 189 190 188 184 183 181 179 178 179 181 184 185 184 185 187 192 199 207 212 215 220 226 234 239 239 237 242 249 248 249 256 263 271 288 295 300 309 314 324 350 10 15 12 8 5 7 11 6 354 348 351 355 358 3 7 8 12 17 20 19 16 15 13 12 13 15 17 20 23 25 23 22 22 23 22 20 20 20 22 24 25 25 27
191 189 189 189 187 185 184 184 182 182 183 186 190 193 193 192 194 196 202 211 217 220 224 229 233 237 238 233 235 243 246 248 256 264 274 285 290 296 306 305 301 321 357 7 5 359 356 359 4 358 346 342 346 351 354 359 4 6 10 15 19 19 18 15 14 12 13 14 16 19 21 24 24 23 24 25 25 23 22 21 21 23 24 25 27
192 191 191 191 189 187 186 186 185 185 188 190 193 197 200 202 204 205 207 213 217 219 223 226 227 230 234 234 236 241 246 252 259 266 275 281 286 295 306 305 290 288 317 348 354 350 347 349 352 347 338 337 341 346 350 355 360 5 9 12 16 18 18 17 16 14 12 12 15 18 20 23 24 24 24 25 26 25 24 22 22 23 25 26 27
191 193 195 194 191 187 187 187 187 189 191 193 197 200 200 202 204 203 203 207 211 216 221 223 224 228 230 232 239 245 250 254 257 266 278 283 286 295 305 307 293 273 275 309 334 344 341 338 337 335 331 332 336 341 345 349 355 1 6 9 13 16 15 16 16 15 12 11 12 16 19 21 24 25 25 26 27 26 24 22 22 23 24 26 28
190 193 196 194 191 188 186 187 189 192 193 196 201 202 195 192 193 194 200 209 212 215 217 214 214 217 219 226 242 254 262 263 260 268 286 291 290 292 296 298 295 284 275 293 316 331 330 326 326 327 326 325 329 336 342 345 349 357 2 4 9 13 13 14 14 14 12 11 10 12 16 20 22 23 25 27 28 27 25 23 22 23 24 26 28
191 194 195 193 191 190 188 186 188 191 194 198 202 203 200 201 202 204 214 218 213 214 217 213 213 220 227 236 252 265 273 271 265 270 287 293 289 287 292 299 304 303 297 299 308 316 319 318 319 320 318 318 323 331 338 341 345 352 357 0 5 9 11 11 12 12 12 11 11 10 13 18 22 22 22 25 28 28 27 25 23 23 25 26 28
198 197 196 195 192 190 189 189 190 193 194 197 201 203 207 216 220 220 222 222 219 221 226 226 230 237 242 250 264 271 267 263 263 273 288 291 284 284 295 304 305 304 303 303 306 310 311 312 313 312 311 313 319 326 333 337 342 348 351 355 0 6 8 9 10 10 10 10 11 11 11 14 19 21 21 23 26 26 26 25 24 24 25 26 28
199 197 197 198 195 190 188 190 194 197 196 196 199 203 208 215 222 225 226 226 226 231 237 242 244 246 247 252 258 261 260 260 265 276 284 284 282 286 293 297 298 299 300 301 302 305 307 306 305 304 305 309 315 322 328 332 338 343 346 348 353 359 4 6 7 7 8 9 10 10 10 12 16 19 20 22 25 25 25 26 26 26 26 26 27
196 195 196 198 196 192 188 189 195 201 201 199 201 204 208 213 218 224 229 232 233 235 243 248 248 248 252 254 254 255 259 264 270 275 276 278 284 289 292 296 296 294 293 295 299 300 299 298 297 297 301 306 312 320 327 331 334 338 340 343 346 350 356 1 3 2 4 6 8 9 8 9 13 16 17 19 23 24 24 25 27 29 28 27 27
193 195 197 198 195 191 189 190 195 200 203 204 206 208 210 214 218 223 228 233 234 233 236 242 247 252 258 260 256 258 264 269 273 275 276 280 287 290 293 298 299 291 284 289 295 293 290 292 295 295 298 304 312 319 326 330 332 332 334 338 341 342 346 353 357 357 358 1 5 7 7 6 8 13 15 15 18 22 24 25 26 28 29 28 27
191 196 199 199 194 190 191 195 201 204 207 210 212 213 213 214 218 224 228 231 235 237 236 239 244 250 256 257 257 260 265 268 271 273 276 281 287 290 292 298 300 291 279 278 283 285 286 290 292 291 294 302 312 321 328 331 332 333 334 336 337 336 337 343 349 351 351 353 358 3 5 4 4 9 12 12 13 16 21 24 25 27 28 28 28
188 193 198 200 198 195 195 199 204 209 212 215 219 222 222 219 218 223 228 231 235 238 240 240 242 245 248 252 256 260 263 266 268 272 276 280 284 286 289 295 298 293 279 270 272 277 281 283 284 288 294 301 308 319 329 333 335 336 337 336 335 332 331 335 342 345 345 346 349 354 360 2 1 3 8 10 11 13 16 19 22 26 28 28 28
190 193 198 205 207 203 200 201 203 206 211 218 224 229 230 226 222 223 228 232 235 237 239 241 244 245 247 249 252 255 260 264 267 271 275 278 280 283 287 293 297 295 284 272 267 268 273 278 283 289 295 300 305 313 322 331 338 341 340 338 336 333 330 331 335 337 339 340 342 345 350 356 358 360 3 6 8 9 11 13 15 21 26 29 29
193 196 204 212 213 209 207 207 207 207 210 220 228 231 232 232 228 225 227 232 237 240 243 247 250 251 251 251 252 255 259 264 267 269 272 275 276 280 285 289 290 290 287 280 270 265 269 277 284 289 295 302 309 313 317 325 335 341 340 338 336 334 332 332 331 331 331 334 336 337 341 346 351 355 358 1 3 5 7 7 7 10 18 26 29
193 199 210 216 216 214 214 215 216 215 214 218 224 229 232 235 236 233 232 233 236 240 244 249 253 255 254 255 258 261 265 267 269 270 273 274 275 278 282 284 283 284 286 286 278 269 268 273 282 290 298 305 311 315 317 322 327 329 331 333 333 330 329 330 331 329 327 326 327 329 333 337 341 345 350 355 358 0 3 4 2 2 7 16 23
195 201 210 215 218 221 222 221 224 225 222 221 222 224 229 235 239 240 240 239 239 240 243 246 251 254 255 258 261 264 267 270 271 273 275 277 278 279 280 280 279 280 283 285 282 276 273 275 282 289 295 299 301 303 308 315 318 319 322 326 328 326 324 325 326 327 327 324 321 320 323 328 332 335 340 346 351 354 357 360 359 358 360 5 12
199 203 209 215 221 226 226 225 226 228 229 229 227 227 229 233 237 240 242 244 245 245 246 247 249 252 255 257 260 263 266 269 271 273 275 277 280 282 281 279 277 276 278 280 281 282 282 283 286 289 292 294 294 296 299 304 308 313 318 321 321 321 321 321 321 323 325 323 320 318 316 317 321 325 330 335 340 346 351 354 355 355 355 357 3
200 207 214 220 225 228 229 227 226 226 230 233 233 231 231 234 237 240 243 246 248 250 251 252 253 254 256 259 261 264 266 267 268 270 273 275 278 280 280 280 279 276 276 278 281 285 287 287 288 289 291 293 294 295 296 298 304 310 316 317 315 315 317 320 319 320 321 321 320 318 314 311 311 314 319 325 329 334 340 345 348 349 350 352 356
204 214 222 225 225 227 229 229 228 228 231 234 235 234 233 235 238 242 245 247 249 251 252 255 257 259 261 264 266 266 267 267 267 269 272 274 276 277 278 278 278 276 275 277 281 285 287 287 287 287 288 291 295 298 299 302 305 307 309 310 309 309 311 314 314 315 316 317 318 317 314 310 308 307 309 313 318 322 327 332 337 340 343 347 349
210 217 223 225 223 224 228 231 232 233 237 240 239 238 236 236 239 243 246 248 250 251 252 255 257 259 261 264 266 268 269 270 270 271 273 275 276 276 274 273 273 273 274 276 279 282 284 284 283 284 287 293 298 300 301 301 302 301 301 302 304 305 306 307 308 308 309 311 314 315 313 310 308 306 304 305 307 310 314 319 323 326 331 337 342
Height
1538 1539 1540 1541 1542 1542 1544 1545 1547 1548 1550 1552 1553 1554 1556 1556 1557 1557 1557 1558 1558 1558 1559 1560 1560 1560 1561 1561 1561 1561 1560 1560 1560 1559 1559 1558 1557 1557 1556 1555 1554 1554 1553 1552 1551 1550 1550 1549 1548 1547 1546 1544 1542 1541 1540 1538 1537 1535 1533 1531 1530 1528 1527 1525 1524 1521 1518 1517 1515 1512 1509 1506 1502 1499 1496 1493 1490 1487 1485 1482 1479 1476 1473 1470 1468
1538 1538 1540 1541 1542 1543 1545 1546 1547 1549 1550 1552 1553 1554 1555 1556 1557 1557 1558 1558 1558 1559 1559 1560 1560 1561 1561 1561 1561 1561 1560 1559 1559 1559 1559 1558 1557 1557 1556 1555 1555 1554 1553 1553 1552 1551 1550 1549 1548 1547 1546 1544 1543 1541 1539 1538 1536 1534 1533 1531 1529 1528 1526 1524 1523 1520 1517 1515 1513 1511 1509 1506 1502 1499 1496 1492 1489 1485 1482 1479 1476 1473 1470 1467 1464
1538 1539 1540 1542 1543 1544 1545 1546 1548 1549 1550 1552 1553 1555 1556 1557 1557 1558 1558 1558 1559 1559 1560 1560 1561 1561 1561 1561 1561 1561 1560 1559 1559 1559 1558 1558 1557 1557 1556 1556 1555 1555 1554 1553 1552 1552 1551 1550 1549 1548 1546 1544 1543 1541 1539 1538 1536 1534 1532 1531 1529 1527 1526 1524 1522 1520 1517 1514 1512 1510 1507 1504 1502 1499 1496 1492 1488 1484 1480 1476 1474 1471 1468 1465 1461
1538 1539 1540 1542 1543 1544 1545 1546 1548 1549 1551 1552 1554 1555 1556 1557 1558 1558 1558 1558 1559 1560 1560 1561 1561 1561 1561 1561 1561 1561 1561 1560 1559 1559 1558 1557 1557 1557 1556 1556 1555 1555 1554 1554 1553 1552 1551 1550 1549 1548 1546 1544 1543 1541 1539 1538 1536 1534 1532 1530 1529 1527 1525 1524 1522 1520 1516 1513 1511 1509 1506 1503 1500 1498 1494 1491 1488 1484 1480 1476 1472 1469 1465 1462 1459
1538 1539 1540 1542 1543 1544 1545 1546 1548 1549 1551 1552 1554 1555 1556 1557 1558 1558 1558 1558 1559 1560 1560 1561 1561 1561 1561 1561 1561 1561 1560 1560 1560 1559 1558 1557 1557 1557 1557 1556 1556 1555 1555 1554 1554 1553 1551 1550 1549 1548 1546 1544 1543 1541 1539 1538 1536 1534 1532 1530 1528 1526 1525 1523 1521 1519 1516 1513 1509 1507 1505 1502 1499 1496 1493 1489 1485 1482 1478 1475 1471 1467 1462 1459 1456
1537 1538 1540 1541 1542 1544 1545 1547 1548 1549 1551 1552 1554 1555 1556 1557 1558 1558 1558 1559 1560 1560 1561 1561 1561 1561 1561 1561 1561 1560 1560 1560 1559 1559 1558 1557 1557 1557 1557 1557 1557 1556 1556 1555 1554 1553 1552 1550 1549 1548 1546 1544 1543 1541 1539 1538 1536 1533 1531 1529 1528 1526 1524 1522 1520 1518 1516 1513 1509 1505 1503 1500 1496 1493 1491 1488 1483 1479 1475 1471 1468 1464 1459 1454 1451
1537 1538 1539 1540 1542 1543 1545 1547 1548 1550 1551 1552 1554 1555 1556 1557 1558 1558 1559 1560 1560 1561 1561 1561 1561 1561 1561 1561 1561 1560 1560 1560 1559 1559 1558 1558 1557 1557 1557 1557 1557 1556 1556 1555 1555 1554 1552 1551 1549 1548 1547 1545 1543 1541 1539 1537 1535 1533 1531 1529 1527 1525 1523 1521 1519 1517 1514 1511 1508 1504 1501 1498 1495 1491 1488 1485 1482 1478 1473 1468 1463 1460 1456 1452 1447
1537 1538 1539 1540 1542 1543 1545 1547 1549 1550 1551 1552 1554 1555 1556 1557 1558 1558 1559 1560 1560 1561 1561 1561 1561 1561 1561 1561 1560 1560 1560 1560 1559 1559 1558 1558 1558 1557 1557 1557 1557 1557 1556 1555 1555 1554 1553 1552 1550 1548 1547 1545 1544 1542 1540 1537 1535 1533 1531 1529 1527 1524 1522 1520 1518 1516 1513 1510 1507 1503 1500 1496 1493 1489 1485 1482 1478 1474 1471 1467 1461 1456 1452 1448 1444
1537 1538 1539 1540 1542 1543 1545 1547 1549 1550 1551 1552 1553 1555 1556 1557 1557 1558 1559 1559 1560 1561 1561 1561 1561 1561 1561 1561 1560 1560 1560 1559 1559 1559 1558 1558 1558 1558 1557 1557 1557 1557 1556 1556 1555 1554 1553 1552 1551 1549 1547 1546 1544 1542 1540 1538 1535 1532 1530 1528 1526 1524 1522 1519 1517 1515 1512 1509 1505 1502 1498 1495 1491 1487 1483 1479 1476 1471 1468 1465 1460 1455 1450 1443 1439
1537 1538 1539 1540 1541 1543 1545 1547 1548 1549 1551 1552 1553 1554 1555 1556 1557 1557 1558 1559 1560 1561 1561 1561 1561 1561 1561 1561 1560 1560 1560 1559 1559 1558 1558 1558 1558 1558 1557 1557 1557 1557 1557 1556 1555 1554 1553 1552 1551 1549 1547 1546 1544 1543 1541 1538 1536 1533 1531 1528 1526 1524 1522 1519 1517 1514 1512 1508 1505 1501 1497 1493 1490 1487 1482 1478 1475 1470 1466 1462 1456 1451 1447 1439 1432
1537 1538 1539 1540 1541 1543 1544 1546 1548 1549 1550 1552 1553 1554 1555 1556 1557 1557 1558 1559 1560 1560 1561 1561 1561 1561 1561 1561 1560 1560 1559 1559 1559 1559 1559 1558 1558 1558 1558 1557 1557 1557 1557 1556 1555 1555 1554 1553 1551 1549 1548 1546 1544 1542 1541 1538 1536 1534 1532 1529 1527 1525 1523 1520 1517 1514 1511 1508 1504 1501 1497 1493 1489 1486 1481 1477 1472 1468 1464 1460 1454 1448 1444 1437 1429
1536 1538 1538 1540 1541 1542 1544 1546 1547 1549 1550 1551 1552 1553 1554 1555 1556 1557 1558 1558 1559 1560 1560 1561 1561 1561 1561 1560 1560 1560 1559 1559 1559 1559 1559 1559 1559 1558 1558 1558 1558 1558 1557 1556 1555 1555 1554 1553 1551 1549 1548 1546 1544 1542 1540 1538 1536 1534 1532 1530 1528 1526 1524 1521 1518 1514 1511 1508 1504 1501 1497 1493 1488 1485 1480 1475 1469 1465 1461 1456 1452 1447 1441 1436 1429
1536 1537 1538 1539 1540 1542 1544 1545 1546 1548 1549 1550 1551 1552 1553 1555 1555 1556 1557 1558 1559 1559 1560 1560 1560 1560 1560 1560 1560 1559 1559 1559 1559 1559 1559 1559 1559 1558 1558 1558 1558 1558 1557 1556 1555 1555 1554 1553 1551 1549 1548 1546 1543 1541 1539 1537 1536 1534 1532 1530 1528 1526 1524 1521 1518 1515 1511 1508 1504 1501 1497 1493 1488 1484 1480 1475 1468 1462 1456 1451 1447 1443 1437 1433 1427
1535 1536 1537 1538 1540 1541 1543 1544 1546 1547 1548 1549 1550 1551 1553 1554 1555 1556 1556 1557 1558 1559 1559 1560 1560 1560 1560 1560 1560 1559 1559 1559 1559 1559 1559 1558 1558 1558 1558 1557 1557 1557 1556 1555 1555 1555 1554 1553 1551 1550 1548 1545 1543 1541 1539 1537 1535 1533 1531 1529 1527 1525 1522 1519 1517 1514 1511 1509 1504 1500 1497 1493 1489 1483 1479 1475 1469 1462 1455 1447 1442 1438 1432 1427 1422
1534 1534 1536 1537 1539 1540 1542 1543 1545 1546 1547 1548 1549 1551 1552 1553 1554 1555 1556 1557 1557 1558 1559 1559 1560 1560 1560 1560 1560 1560 1559 1559 1559 1559 1559 1558 1558 1558 1557 1557 1557 1556 1556 1555 1555 1555 1554 1553 1551 1549 1547 1545 1543 1541 1539 1537 1535 1532 1530 1528 1525 1523 1521 1518 1515 1512 1510 1508 1504 1500 1496 1492 1488 1483 1477 1473 1468 1461 1455 1448 1440 1434 1426 1420 1416
1532 1533 1534 1536 1538 1539 1541 1542 1544 1545 1546 1547 1549 1550 1551 1552 1553 1555 1555 1556 1557 1558 1558 1559 1559 1560 1560 1560 1560 1560 1559 1559 1559 1559 1559 1558 1558 1558 1557 1557 1557 1556 1556 1555 1554 1554 1554 1552 1551 1549 1548 1545 1543 1541 1539 1537 1534 1531 1529 1526 1524 1522 1519 1517 1514 1512 1509 1506 1502 1499 1495 1491 1487 1482 1476 1471 1464 1457 1451 1444 1438 1431 1423 1415 1410
1531 1532 1533 1535 1537 1538 1540 1541 1542 1544 1545 1547 1548 1549 1551 1552 1553 1554 1555 1556 1557 1557 1558 1559 1559 1560 1560 1560 1560 1560 1559 1559 1559 1559 1559 1558 1558 1558 1558 1557 1556 1556 1556 1555 1554 1553 1553 1552 1550 1549 1548 1545 1543 1541 1539 1537 1534 1531 1528 1525 1523 1520 1517 1515 1513 1511 1508 1504 1500 1496 1492 1489 1485 1480 1474 1469 1462 1454 1446 1438 1433 1427 1420 1412 1405
1530 1531 1533 1534 1536 1538 1539 1541 1542 1543 1545 1546 1548 1549 1550 1551 1553 1554 1555 1556 1557 1557 1558 1559 1559 1560 1560 1560 1560 1560 1560 1559 1559 1559 1559 1559 1558 1558 1558 1557 1556 1556 1555 1555 1554 1553 1552 1551 1550 1549 1547 1545 1543 1541 1539 1536 1534 1531 1528 1525 1522 1519 1516 1513 1511 1508 1504 1501 1497 1493 1490 1486 1482 1477 1472 1465 1459 1452 1444 1436 1430 1424 1417 1410 1402
1529 1530 1532 1533 1535 1537 1539 1540 1541 1543 1544 1546 1547 1549 1550 1551 1553 1554 1555 1556 1556 1557 1558 1559 1559 1560 1560 1560 1560 1560 1560 1559 1559 1559 1559 1559 1558 1558 1557 1557 1556 1555 1555 1555 1554 1553 1552 1551 1550 1549 1547 1545 1543 1541 1539 1536 1533 1530 1528 1525 1521 1518 1515 1513 1510 1506 1501 1498 1494 1491 1487 1483 1479 1474 1468 1462 1456 1450 1443 1436 1429 1421 1414 1407 1401
1528 1530 1531 1533 1535 1536 1538 1539 1541 1542 1544 1545 1547 1549 1550 1551 1552 1554 1555 1556 1556 1557 1558 1559 1559 1560 1560 1560 1560 1560 1559 1559 1559 1559 1558 1558 1558 1558 1557 1556 1556 1555 1555 1554 1554 1553 1552 1551 1550 1549 1547 1545 1543 1541 1539 1536 1533 1531 1528 1525 1522 1519 1516 1513 1509 1505 1501 1497 1493 1489 1485 1480 1476 1471 1465 1459 1453 1447 1441 1434 1428 1420 1412 1404 1398
1528 1529 1530 1532 1534 1536 1537 1539 1540 1542 1543 1545 1546 1548 1550 1551 1552 1553 1554 1555 1556 1557 1558 1559 1559 1559 1559 1560 1560 1560 1560 1559 1559 1559 1559 1558 1558 1557 1557 1556 1556 1555 1554 1554 1553 1552 1551 1550 1549 1548 1547 1545 1543 1541 1538 1536 1534 1531 1528 1526 1523 1520 1516 1512 1508 1504 1500 1496 1492 1487 1483 1478 1474 1468 1463 1456 1450 1444 1438 1432 1425 1418 1411 1402 1395
1527 1529 1530 1532 1533 1535 1536 1538 1540 1541 1543 1544 1546 1548 1549 1551 1552 1553 1554 1555 1556 1557 1557 1558 1559 1559 1559 1559 1559 1560 1560 1560 1559 1559 1559 1558 1558 1557 1557 1556 1555 1555 1554 1553 1553 1552 1551 1550 1549 1548 1546 1545 1543 1541 1538 1536 1533 1531 1529 1526 1523 1520 1516 1512 1508 1503 1499 1495 1491 1486 1482 1477 1472 1467 1461 1454 1448 1442 1436 1429 1423 1416 1409 1403 1395
1526 1528 1529 1531 1533 1534 1536 1537 1539 1541 1542 1544 1546 1547 1548 1550 1551 1552 1554 1555 1556 1556 1557 1557 1558 1558 1558 1559 1559 1559 1560 1560 1560 1559 1559 1558 1558 1557 1557 1556 1555 1554 1553 1553 1552 1551 1551 1550 1549 1548 1546 1545 1543 1540 1538 1536 1533 1531 1528 1526 1522 1519 1515 1511 1507 1502 1498 1495 1490 1486 1481 1477 1472 1466 1460 1454 1447 1440 1434 1428 1421 1415 1408 1401 1394
1525 1527 1528 1530 1532 1533 1535 1537 1539 1540 1542 1544 1545 1546 1548 1549 1551 1552 1554 1555 1555 1556 1557 1557 1558 1558 1558 1559 1559 1559 1560 1560 1560 1559 1559 1559 1558 1557 1557 1556 1555 1554 1553 1553 1552 1551 1551 1550 1549 1548 1546 1544 1542 1540 1538 1536 1533 1531 1528 1525 1522 1518 1514 1510 1506 1502 1498 1494 1490 1486 1482 1477 1472 1467 1461 1455 1449 1442 1435 1428 1421 1414 1407 1400 1393
1524 1526 1527 1529 1531 1532 1534 1536 1538 1540 1541 1543 1544 1545 1547 1549 1550 1552 1553 1554 1555 1556 1557 1557 1558 1558 1559 1559 1559 1559 1559 1560 1560 1559 1559 1559 1558 1557 1557 1556 1555 1554 1553 1553 1552 1551 1551 1550 1549 1548 1546 1544 1542 1540 1538 1535 1533 1530 1528 1525 1521 1518 1514 1510 1506 1502 1498 1495 1491 1487 1482 1478 1473 1468 1463 1457 1451 1443 1435 1427 1419 1412 1405 1398 1392
1523 1525 1527 1528 1530 1531 1533 1535 1537 1539 1541 1542 1544 1545 1547 1548 1550 1551 1552 1553 1554 1556 1557 1558 1558 1559 1559 1559 1559 1559 1559 1559 1559 1559 1559 1559 1558 1557 1557 1556 1555 1554 1553 1553 1552 1552 1551 1550 1548 1547 1545 1544 1542 1540 1538 1535 1533 1530 1527 1524 1521 1517 1514 1510 1506 1502 1499 1495 1492 1488 1484 1479 1474 1470 1464 1458 1452 1445 1436 1428 1420 1412 1405 1398 1391
1521 1524 1525 1527 1529 1531 1532 1534 1536 1538 1540 1542 1543 1545 1547 1548 1549 1550 1551 1552 1554 1555 1557 1557 1558 1559 1559 1558 1558 1558 1558 1559 1559 1559 1559 1559 1558 1558 1557 1556 1555 1554 1554 1553 1552 1551 1550 1549 1548 1547 1545 1543 1542 1541 1538 1535 1532 1530 1527 1524 1521 1518 1515 1511 1507 1504 1500 1497 1493 1489 1485 1480 1475 1470 1464 1458 1453 1447 1440 1432 1424 1416 1409 1402 1395
1520 1522 1524 1526 1528 1530 1532 1533 1535 1537 1539 1541 1543 1545 1546 1548 1549 1549 1550 1552 1553 1555 1556 1557 1557 1558 1558 1558 1558 1558 1558 1559 1559 1559 1559 1558 1558 1557 1557 1556 1555 1554 1553 1553 1552 1551 1550 1548 1547 1546 1545 1543 1542 1540 1538 1535 1532 1529 1527 1524 1521 1518 1515 1512 1508 1505 1501 1498 1494 1490 1485 1481 1476 1470 1465 1460 1455 1450 1443 1436 1429 1422 1414 1407 1400
1519 1521 1523 1525 1527 1529 1531 1533 1535 1536 1538 1540 1543 1545 1546 1547 1548 1549 1550 1551 1553 1554 1555 1556 1556 1557 1557 1557 1557 1557 1558 1558 1558 1559 1558 1558 1557 1557 1556 1556 1555 1554 1553 1552 1551 1550 1549 1548 1547 1545 1543 1542 1541 1539 1537 1534 1532 1530 1527 1524 1522 1519 1515 1512 1508 1505 1502 1498 1494 1491 1486 1482 1477 1472 1467 1462 1458 1453 1447 1440 1434 1427 1419 1412 1406
1518 1520 1522 1524 1526 1528 1530 1532 1534 1536 1537 1539 1541 1543 1545 1547 1549 1549 1550 1551 1552 1554 1555 1555 1556 1556 1556 1557 1556 1557 1558 1558 1558 1558 1557 1557 1557 1556 1556 1555 1554 1553 1552 1551 1550 1549 1548 1547 1546 1544 1543 1542 1541 1539 1537 1534 1532 1530 1527 1524 1522 1518 1515 1512 1509 1506 1503 1499 1495 1492 1488 1484 1479 1475 1470 1465 1460 1455 1451 1445 1439 1432 1424 1417 1411
1517 1519 1521 1523 1525 1527 1529 1531 1533 1535 1536 1538 1540 1541 1542 1545 1547 1548 1549 1551 1552 1553 1554 1554 1555 1556 1556 1556 1556 1557 1557 1557 1557 1557 1556 1556 1556 1555 1555 1554 1553 1552 1551 1550 1550 1549 1548 1547 1545 1544 1543 1542 1541 1539 1537 1534 1532 1530 1527 1525 1522 1519 1516 1513 1510 1507 1503 1500 1497 1493 1489 1486 1482 1477 1473 1468 1463 1458 1453 1448 1443 1437 1430 1424 1418
1515 1517 1519 1522 1524 1526 1529 1531 1532 1534 1536 1537 1539 1540 1541 1542 1544 1546 1548 1549 1550 1552 1552 1553 1554 1555 1555 1555 1556 1556 1556 1556 1556 1556 1555 1555 1555 1554 1554 1553 1553 1552 1551 1550 1549 1548 1547 1546 1545 1543 1543 1542 1540 1539 1537 1535 1532 1530 1528 1525 1522 1519 1517 1514 1511 1508 1505 1501 1497 1494 1491 1488 1484 1480 1476 1471 1466 1461 1457 1452 1446 1441 1436 1431 1425
1514 1516 1518 1521 1523 1526 1528 1530 1531 1533 1534 1536 1538 1539 1540 1542 1543 1545 1546 1548 1549 1550 1551 1552 1553 1553 1553 1554 1554 1555 1555 1555 1555 1555 1554 1554 1554 1553 1553 1552 1552 1551 1550 1549 1548 1548 1547 1546 1545 1543 1543 1542 1540 1538 1537 1535 1533 1531 1528 1526 1523 1520 1518 1515 1512 1509 1506 1502 1499 1496 1492 1489 1486 1482 1479 1474 1470 1465 1460 1456 1451 1446 1441 1436 1431
1513 1515 1518 1520 1522 1524 1527 1529 1531 1532 1533 1535 1537 1538 1540 1541 1542 1544 1545 1546 1547 1549 1550 1550 1551 1552 1552 1553 1553 1554 1554 1554 1554 1554 1553 1553 1552 1552 1552 1551 1551 1550 1549 1549 1548 1547 1546 1545 1544 1543 1542 1541 1540 1538 1536 1534 1533 1531 1529 1527 1524 1521 1519 1516 1513 1510 1507 1504 1500 1497 1494 1491 1487 1484 1481 1477 1473 1469 1464 1460 1456 1451 1447 1442 1437
1513 1516 1518 1520 1522 1524 1527 1528 1530 1532 1534 1535 1536 1538 1539 1540 1542 1543 1545 1546 1547 1548 1548 1549 1550 1550 1551 1551 1552 1552 1553 1553 1553 1552 1552 1552 1551 1551 1550 1550 1550 1549 1548 1548 1547 1546 1545 1544 1544 1543 1542 1540 1539 1538 1536 1534 1533 1531 1529 1527 1524 1522 1519 1517 1514 1511 1508 1505 1502 1498 1495 1492 1489 1486 1483 1480 1476 1472 1468 1464 1460 1456 1453 1449 1444
1514 1516 1518 1520 1522 1525 1527 1529 1530 1532 1533 1534 1535 1537 1538 1539 1541 1542 1544 1545 1546 1547 1547 1548 1549 1549 1549 1550 1551 1551 1551 1551 1551 1551 1551 1550 1550 1550 1549 1549 1548 1548 1547 1547 1546 1545 1544 1544 1543 1542 1541 1540 1539 1537 1536 1534 1532 1531 1529 1527 1524 1522 1520 1517 1515 1512 1509 1506 1503 1500 1497 1494 1491 1488 1485 1482 1479 1475 1472 1468 1464 1461 1457 1454 1450
1514 1516 1518 1520 1522 1524 1527 1528 1530 1531 1533 1534 1535 1536 1537 1538 1540 1541 1542 1543 1545 1545 1546 1547 1547 1547 1548 1548 1549 1549 1550 1549 1549 1549 1549 1549 1548 1548 1548 1547 1547 1546 1546 1545 1545 1544 1543 1543 1542 1541 1540 1539 1538 1536 1535 1534 1532 1530 1529 1527 1525 1522 1520 1518 1516 1513 1510 1508 1505 1501 1498 1495 1492 1489 1487 1484 1481 1478 1475 1472 1468 1465 1461 1458 1455
1514 1515 1517 1519 1521 1523 1525 1527 1529 1531 1532 1533 1534 1535 1536 1537 1538 1539 1541 1542 1543 1544 1545 1545 1545 1546 1546 1547 1548 1548 1548 1548 1547 1547 1547 1547 1547 1546 1546 1546 1545 1545 1544 1544 1544 1543 1542 1541 1541 1540 1539 1538 1537 1536 1535 1533 1532 1530 1528 1526 1525 1522 1520 1519 1516 1514 1511 1509 1506 1503 1500 1497 1494 1491 1489 1486 1484 1481 1478 1475 1471 1468 1465 1462 1459
1514 1515 1517 1519 1520 1522 1524 1526 1527 1529 1530 1532 1533 1534 1535 1536 1537 1538 1539 1540 1541 1542 1543 1543 1544 1544 1545 1546 1546 1546 1546 1546 1545 1546 1546 1546 1545 1545 1545 1544 1544 1543 1543 1542 1542 1541 1540 1540 1540 1539 1538 1537 1536 1535 1534 1532 1531 1529 1527 1526 1524 1522 1520 1518 1516 1514 1512 1510 1507 1504 1502 1499 1496 1493 1491 1488 1486 1483 1480 1478 1475 1471 1468 1465 1463
1513 1514 1516 1518 1519 1521 1523 1524 1526 1527 1529 1530 1531 1533 1534 1535 1535 1536 1537 1538 1539 1540 1540 1541 1541 1542 1543 1544 1544 1544 1544 1544 1543 1544 1544 1544 1543 1543 1543 1542 1542 1541 1541 1540 1540 1539 1539 1539 1538 1537 1536 1536 1534 1533 1532 1531 1529 1528 1527 1525 1523 1521 1520 1518 1516 1514 1513 1510 1508 1505 1503 1500 1497 1495 1492 1490 1488 1485 1483 1480 1478 1475 1472 1469 1467
1511 1513 1514 1516 1518 1520 1521 1523 1524 1526 1527 1529 1530 1531 1532 1533 1534 1535 1536 1537 1538 1538 1539 1539 1539 1540 1541 1541 1542 1542 1542 1541 1541 1542 1542 1541 1541 1541 1541 1540 1539 1539 1539 1538 1538 1538 1538 1537 1537 1536 1535 1534 1533 1532 1531 1530 1528 1527 1525 1524 1522 1521 1519 1518 1516 1514 1513 1511 1508 1506 1504 1501 1499 1496 1494 1492 1489 1487 1485 1483 1480 1478 1475 1473 1470
1509 1511 1512 1514 1516 1518 1519 1521 1523 1524 1526 1527 1528 1530 1531 1532 1533 1534 1534 1535 1536 1536 1537 1537 1538 1538 1539 1539 1539 1539 1539 1539 1539 1539 1539 1539 1539 1538 1538 1538 1537 1537 1536 1536 1536 1536 1536 1536 1535 1534 1533 1532 1532 1531 1529 1528 1527 1525 1524 1523 1521 1520 1518 1517 1515 1514 1512 1511 1509 1507 1504 1502 1500 1497 1495 1493 1491 1489 1486 1484 1482 1480 1478 1475 1473
1507 1509 1511 1513 1515 1516 1518 1520 1521 1523 1524 1525 1526 1528 1529 1530 1531 1532 1532 1533 1534 1534 1535 1535 1536 1536 1537 1537 1537 1537 1537 1537 1537 1537 1537 1537 1536 1536 1536 1536 1535 1535 1534 1534 1534 1535 1534 1534 1533 1532 1531 1531 1530 1529 1528 1527 1525 1524 1522 1521 1520 1519 1517 1516 1514 1513 1512 1510 1509 1507 1505 1503 1501 1498 1496 1494 1492 1490 1488 1486 1484 1481 1479 1477 1475
1506 1507 1509 1511 1513 1515 1517 1518 1520 1521 1522 1523 1525 1526 1527 1527 1528 1529 1530 1531 1531 1532 1532 1533 1533 1534 1534 1535 1535 1534 1534 1534 1534 1534 1534 1534 1534 1534 1534 1534 1533 1533 1532 1532 1532 1532 1532 1531 1531 1530 1529 1528 1528 1527 1526 1525 1524 1522 1521 1520 1518 1517 1516 1514 1513 1512 1511 1509 1508 1506 1505 1503 1501 1499 1497 1495 1493 1491 1489 1487 1485 1483 1481 1479 1477
1504 1506 1508 1510 1511 1513 1515 1516 1518 1519 1520 1522 1522 1523 1524 1525 1526 1527 1527 1528 1529 1529 1530 1530 1531 1531 1532 1532 1532 1532 1532 1532 1532 1532 1532 1532 1531 1532 1532 1532 1531 1531 1530 1530 1530 1530 1530 1529 1529 1528 1527 1526 1525 1525 1524 1523 1522 1521 1520 1518 1517 1516 1514 1513 1512 1510 1509 1508 1507 1506 1504 1503 1501 1499 1497 1495 1493 1491 1489 1488 1486 1484 1482 1480 1479
1502 1504 1506 1508 1510 1511 1513 1514 1516 1517 1518 1519 1520 1521 1522 1522 1523 1524 1525 1525 1526 1527 1527 1528 1528 1529 1529 1529 1529 1529 1529 1529 1529 1529 1529 1529 1529 1529 1529 1529 1529 1528 1528 1527 1527 1527 1527 1527 1526 1525 1524 1524 1523 1523 1522 1521 1520 1519 1518 1517 1516 1514 1513 1512 1511 1509 1508 1507 1506 1505 1503 1502 1500 1499 1497 1495 1494 1492 1490 1489 1487 1485 1483 1481 1480
1501 1503 1505 1506 1508 1509 1511 1512 1513 1515 1516 1517 1518 1518 1519 1520 1521 1521 1522 1523 1524 1524 1525 1525 1526 1526 1526 1526 1526 1526 1526 1526 1526 1526 1526 1526 1526 1526 1526 1526 1526 1525 1525 1525 1525 1524 1524 1524 1523 1522 1522 1521 1521 1520 1520 1519 1519 1518 1516 1515 1514 1513 1511 1510 1509 1508 1506 1505 1504 1503 1502 1501 1500 1498 1497 1495 1494 1492 1490 1489 1487 1486 1484 1482 1481
1499 1501 1503 1504 1506 1507 1508 1509 1511 1512 1513 1514 1515 1516 1517 1518 1518 1519 1520 1520 1521 1522 1522 1523 1523 1523 1523 1523 1523 1523 1523 1523 1523 1523 1523 1523 1523 1523 1523 1523 1522 1522 1522 1522 1522 1521 1521 1520 1520 1519 1519 1518 1518 1518 1517 1517 1516 1515 1514 1513 1512 1511 1509 1508 1507 1506 1505 1504 1502 1501 1500 1499 1498 1497 1496 1495 1493 1492 1490 1489 1487 1486 1485 1483 1482
1497 1498 1500 1502 1503 1504 1506 1507 1508 1509 1510 1511 1512 1513 1514 1515 1516 1516 1517 1518 1518 1519 1519 1519 1520 1520 1520 1520 1520 1520 1520 1520 1519 1520 1520 1520 1520 1520 1519 1519 1519 1519 1519 1519 1518 1518 1518 1517 1517 1516 1516 1516 1515 1515 1514 1514 1513 1512 1511 1510 1509 1508 1507 1506 1505 1504 1503 1502 1501 1500 1498 1497 1497 1496 1495 1494 1493 1491 1490 1488 1487 1486 1485 1483 1482
1494 1496 1498 1500 1501 1502 1503 1504 1506 1507 1508 1509 1510 1510 1511 1512 1513 1514 1514 1515 1515 1516 1516 1516 1516 1517 1517 1517 1517 1517 1517 1517 1516 1516 1516 1516 1516 1516 1516 1516 1516 1516 1515 1515 1515 1515 1515 1514 1514 1514 1513 1513 1512 1512 1511 1511 1510 1509 1508 1507 1507 1506 1505 1503 1502 1501 1501 1500 1499 1498 1497 1495 1495 1494 1493 1492 1491 1490 1489 1488 1487 1485 1484 1483 1482
1491 1493 1496 1498 1499 1500 1502 1502 1503 1504 1505 1506 1507 1508 1509 1509 1510 1511 1511 1512 1512 1513 1513 1513 1513 1514 1514 1514 1514 1514 1514 1513 1513 1513 1513 1513 1513 1513 1513 1513 1513 1512 1512 1512 1512 1512 1512 1511 1511 1511 1511 1510 1510 1509 1508 1507 1506 1505 1505 1504 1504 1503 1502 1501 1500 1499 1498 1497 1496 1495 1494 1493 1492 1491 1491 1490 1489 1488 1488 1487 1486 1485 1484 1482 1481